Wind_Speed
22 20 18 16 13 11 9 7 5 3 3 4 6 8 9 10 11 13 14 16 17 18 17 17 17 17 16 16 16 16 15 15 14 13 12 11 10 9 7 6 5 4 3 2
23 20 18 17 16 15 13 11 8 6 5 4 7 9 9 11 9 11 12 14 15 15 16 15 15 15 15 15 15 15 15 15 14 13 11 9 8 8 7 6 5 5 3 2
23 21 20 20 18 18 17 14 12 9 6 5 6 8 8 10 9 9 11 12 12 13 14 14 14 15 14 14 14 14 13 13 13 12 11 10 8 7 6 6 6 5 4 3
25 24 23 22 21 20 18 16 14 12 9 8 7 8 7 8 8 9 10 10 11 12 13 13 13 14 14 14 14 13 12 12 12 12 11 10 9 8 7 6 6 5 4 4
27 26 25 24 22 21 20 19 17 15 14 11 10 9 7 8 8 10 10 11 10 11 11 12 12 12 12 13 12 12 11 11 11 11 10 10 9 8 8 7 6 6 5 5
28 27 27 25 23 22 21 21 21 19 17 15 12 11 9 9 9 9 11 10 9 9 9 10 10 11 11 11 11 11 11 11 11 10 10 9 9 8 8 8 7 7 7 6
30 28 27 26 25 24 23 23 23 22 20 17 13 13 10 9 9 9 10 11 10 9 10 10 11 11 11 11 11 11 10 10 10 10 10 10 9 8 8 8 8 8 8 7
31 29 27 26 25 24 25 24 24 22 21 18 16 15 12 10 10 10 11 11 11 11 11 11 11 11 10 11 11 10 10 10 10 10 10 11 10 9 10 9 8 8 8 7
32 30 28 26 25 25 25 23 22 21 21 20 19 16 13 11 11 11 11 11 11 12 13 12 11 10 10 11 11 10 10 11 10 10 10 10 10 10 10 9 8 8 8 8
33 32 29 27 27 26 25 24 23 22 21 21 19 17 13 11 12 12 11 11 12 12 12 12 11 11 11 11 12 12 12 11 11 11 10 10 10 10 10 10 10 9 9 9
34 33 31 30 29 27 26 26 25 24 23 22 22 19 14 12 12 11 11 11 13 13 13 12 12 12 12 12 12 13 13 12 12 11 11 11 11 12 12 11 10 10 10 10
35 35 33 32 29 27 26 26 26 25 24 24 23 21 16 15 14 13 12 12 14 14 14 13 13 13 13 13 14 14 13 12 11 12 13 13 13 13 13 13 12 11 11 11
37 37 35 34 32 30 28 27 26 26 26 25 24 21 18 17 15 15 14 14 15 16 15 15 15 15 14 14 14 13 13 13 13 13 14 14 14 14 14 14 13 12 11 11
38 38 37 35 32 30 29 28 27 27 27 26 25 22 20 18 17 17 16 16 17 18 17 16 17 16 15 14 14 14 14 13 13 14 14 14 14 14 14 14 14 13 11 11
38 39 37 35 32 31 30 29 29 28 28 27 26 24 22 20 19 19 18 18 20 19 19 18 18 17 17 16 16 15 14 13 14 14 15 15 14 14 14 14 14 13 13 11
39 39 38 36 34 32 31 29 29 28 27 26 26 25 23 23 22 22 21 21 21 20 19 19 18 17 17 17 17 16 14 14 14 14 15 15 15 15 14 14 14 13 13 11
39 39 39 38 36 34 34 30 29 29 27 26 26 25 25 24 23 23 22 22 21 21 20 19 19 18 18 17 17 16 15 14 14 15 15 15 15 15 14 14 14 14 13 12
38 38 39 38 37 38 34 31 31 30 30 28 27 26 26 25 24 24 23 21 21 22 22 22 22 20 19 18 17 16 16 16 15 15 15 15 15 15 14 15 15 15 14 14
38 38 38 38 39 40 36 33 32 31 30 30 28 27 26 26 26 26 24 23 22 23 24 22 22 21 20 19 18 17 17 17 16 16 16 16 15 15 15 15 16 16 16 15
38 38 38 38 40 41 36 33 33 32 32 30 30 29 28 27 27 26 26 25 24 23 23 22 22 21 20 19 18 18 17 17 17 16 16 16 16 16 16 16 16 17 16 16
38 38 37 38 39 38 35 35 35 35 33 30 30 30 30 29 28 27 27 27 24 23 24 22 22 21 20 19 19 18 18 18 17 17 17 17 17 17 17 16 17 17 17 17
39 37 37 37 38 37 33 34 36 35 33 32 31 30 31 31 30 29 28 27 25 24 23 23 22 22 21 20 20 19 19 18 18 18 18 18 18 18 18 17 17 18 18 18
39 37 36 36 36 34 34 34 34 34 34 33 32 31 31 31 31 29 28 27 26 25 24 23 23 22 21 21 20 20 19 19 19 19 19 19 18 18 18 18 18 19 19 19
39 37 36 36 36 35 35 35 34 35 34 34 33 32 32 31 31 30 28 28 28 27 25 24 23 23 22 22 21 20 20 20 20 20 20 19 19 19 19 19 19 19 19 19
37 37 37 37 36 35 36 36 36 35 35 34 34 33 33 32 31 29 29 29 28 27 27 25 24 23 23 23 22 21 21 20 20 20 20 19 19 19 19 19 19 20 19 19
37 37 37 36 36 35 35 36 36 36 35 34 33 33 33 32 30 29 30 29 28 27 26 25 25 24 24 23 22 21 21 21 21 20 20 20 20 19 20 20 20 20 20 19
Wind_Direction
198 193 187 188 189 189 191 197 208 246 272 298 322 338 353 9 18 26 28 26 26 28 31 32 32 34 35 39 40 41 42 42 43 46 51 55 58 60 61 61 58 58 60 77
203 199 194 196 196 194 194 199 213 238 253 284 311 324 338 349 7 15 21 23 24 24 28 28 29 30 30 34 35 37 39 39 39 40 43 47 49 49 47 45 41 44 44 47
206 200 197 200 201 201 197 204 218 229 239 255 294 311 323 340 357 6 11 13 16 20 24 25 25 24 25 28 30 30 33 33 33 33 36 37 38 36 32 26 22 15 13 16
205 201 202 204 205 205 201 207 217 226 233 239 259 287 319 330 347 356 357 358 6 10 18 20 20 20 20 21 21 23 25 26 27 29 30 30 30 29 25 18 14 9 1 352
206 205 207 208 209 211 207 208 215 224 227 232 248 268 298 315 335 346 345 348 354 358 5 13 14 15 15 14 14 17 18 19 20 22 25 25 22 18 16 12 6 1 353 339
209 209 211 211 211 213 210 211 215 218 223 230 240 259 282 304 323 334 339 343 345 350 356 1 2 5 5 3 5 6 8 7 8 8 9 9 11 10 6 2 354 351 352 346
212 212 213 214 214 213 213 212 213 214 222 230 234 251 269 293 309 314 326 335 340 336 342 351 357 359 357 356 357 356 358 1 360 359 358 356 353 353 354 351 347 345 344 344
214 213 214 216 217 216 217 216 216 219 223 231 234 247 261 277 292 303 313 325 331 327 329 340 350 354 351 348 347 346 346 349 351 351 351 353 348 344 349 350 346 340 335 332
216 214 213 215 218 219 218 217 218 222 227 230 233 242 251 265 284 296 307 317 320 317 323 331 337 341 344 342 341 335 340 345 343 342 344 345 346 345 346 347 341 335 328 322
217 216 214 214 216 219 218 218 219 221 224 229 232 238 246 257 272 287 298 306 309 311 318 325 328 331 333 335 336 339 340 343 346 341 336 338 340 343 345 345 341 333 328 321
216 217 214 214 216 219 218 217 219 222 225 229 234 237 242 253 263 277 288 298 304 305 308 314 320 323 323 327 329 333 338 339 343 345 340 335 334 337 340 340 336 332 326 321
215 217 216 216 217 220 222 222 220 223 227 233 240 242 242 252 263 272 280 291 296 299 299 304 309 310 313 317 322 329 335 334 337 344 342 340 337 333 332 332 332 328 323 318
214 216 216 217 217 219 221 221 222 225 228 233 240 242 241 249 259 268 277 285 289 293 294 296 301 303 307 310 314 319 323 324 329 336 337 338 336 335 331 331 328 327 324 319
215 218 219 219 220 222 222 221 223 226 229 232 238 241 239 243 254 264 272 280 287 289 290 292 293 294 298 303 307 310 314 317 321 325 328 330 330 330 328 329 330 329 327 325
214 218 219 219 220 222 224 224 226 228 231 234 237 241 240 243 254 262 269 277 284 284 286 288 288 287 294 297 303 303 306 309 312 316 320 324 325 325 326 326 328 329 327 326
214 217 218 218 219 222 225 226 228 230 232 235 238 240 240 243 252 258 266 272 280 279 284 286 288 291 294 297 300 300 301 304 307 309 314 317 319 320 320 320 321 325 327 326
214 216 217 217 218 222 225 225 228 232 233 237 239 240 241 245 251 258 264 267 274 280 284 285 287 289 291 293 295 296 297 300 303 306 308 312 315 315 315 316 318 320 321 322
215 216 217 217 218 223 224 226 230 234 236 238 240 241 242 244 250 256 262 266 270 277 282 282 283 283 285 286 288 290 293 298 301 304 306 310 312 311 312 314 316 318 320 320
216 217 218 218 220 224 223 226 230 233 236 239 241 242 244 246 251 256 262 267 272 278 280 279 277 278 280 280 281 286 290 295 299 301 304 306 307 307 308 309 312 314 313 314
217 218 220 220 222 224 222 224 229 233 236 239 241 242 244 247 250 256 259 265 271 277 276 274 274 275 276 277 278 282 286 292 296 299 301 301 303 305 305 306 308 311 310 311
219 220 221 222 224 225 223 224 228 233 237 239 242 243 244 248 252 256 260 265 269 272 273 270 271 271 272 274 277 281 284 288 293 297 298 298 300 302 304 307 308 309 310 309
220 222 223 223 224 224 223 226 230 234 238 240 242 245 246 248 251 255 259 262 265 271 272 272 270 270 271 272 277 280 283 285 288 292 294 296 298 300 302 304 306 307 309 309
222 223 224 226 227 226 224 227 231 234 237 240 243 246 250 251 253 258 260 259 262 267 271 271 270 271 269 272 275 277 278 282 285 288 290 292 295 297 299 301 303 305 307 308
223 223 224 225 227 226 225 227 231 234 236 239 243 247 251 253 255 258 259 259 261 263 265 267 268 270 270 270 272 272 275 280 283 286 289 291 292 295 297 299 301 303 305 306
222 223 224 226 227 227 227 228 231 233 236 239 243 247 251 252 253 255 257 260 263 265 263 263 265 268 269 269 270 271 274 278 282 285 287 289 292 293 296 298 300 301 302 303
222 222 223 225 227 229 229 231 233 236 237 240 243 246 250 249 250 253 257 259 262 262 263 263 263 264 265 266 267 270 273 277 280 282 284 286 290 292 294 295 297 299 299 300
Height
5935 5938 5940 5943 5945 5947 5947 5948 5949 5950 5951 5951 5951 5950 5951 5950 5949 5948 5946 5945 5943 5941 5939 5937 5935 5933 5931 5929 5927 5926 5924 5922 5920 5919 5917 5916 5915 5915 5914 5913 5912 5911 5910 5910
5933 5936 5939 5940 5942 5944 5946 5947 5949 5949 5950 5950 5950 5950 5950 5950 5949 5948 5948 5946 5945 5943 5941 5939 5937 5935 5933 5931 5929 5927 5926 5924 5922 5920 5919 5918 5916 5915 5914 5913 5912 5911 5910 5909
5930 5934 5935 5937 5939 5942 5944 5946 5947 5948 5949 5949 5949 5949 5949 5950 5949 5949 5948 5947 5946 5944 5942 5940 5938 5937 5935 5933 5931 5929 5927 5925 5924 5922 5920 5919 5917 5916 5915 5914 5912 5911 5910 5909
5925 5929 5931 5934 5937 5940 5942 5944 5945 5946 5947 5948 5949 5949 5949 5949 5949 5948 5948 5947 5946 5945 5943 5942 5940 5938 5936 5934 5932 5930 5929 5927 5925 5923 5921 5919 5918 5916 5915 5913 5912 5911 5910 5909
5921 5925 5928 5931 5934 5937 5940 5943 5944 5944 5945 5946 5947 5947 5949 5948 5948 5948 5947 5946 5946 5945 5944 5942 5941 5939 5937 5935 5933 5931 5929 5928 5926 5924 5922 5920 5918 5916 5915 5913 5912 5910 5909 5908
5917 5921 5924 5928 5931 5934 5937 5940 5941 5942 5943 5944 5945 5946 5947 5947 5947 5947 5946 5945 5945 5945 5943 5942 5940 5939 5937 5935 5933 5931 5929 5928 5926 5924 5922 5920 5918 5916 5914 5913 5911 5909 5908 5906
5912 5916 5920 5923 5927 5930 5933 5936 5938 5939 5940 5942 5944 5943 5945 5945 5945 5945 5945 5945 5944 5944 5943 5941 5940 5939 5937 5936 5934 5931 5929 5927 5926 5924 5922 5920 5918 5915 5914 5912 5910 5908 5907 5905
5906 5912 5915 5919 5923 5926 5929 5932 5934 5936 5938 5939 5940 5941 5943 5943 5943 5943 5943 5943 5942 5942 5942 5941 5939 5938 5937 5935 5933 5931 5929 5927 5926 5924 5921 5919 5917 5914 5913 5911 5909 5907 5905 5904
5901 5907 5911 5915 5918 5922 5925 5928 5931 5933 5934 5936 5937 5938 5940 5940 5940 5941 5941 5941 5941 5941 5940 5939 5938 5937 5936 5934 5933 5930 5928 5926 5924 5922 5920 5918 5916 5913 5911 5909 5907 5905 5904 5902
5896 5901 5906 5910 5913 5917 5921 5924 5926 5928 5930 5931 5933 5935 5937 5938 5938 5938 5938 5939 5939 5939 5938 5937 5936 5936 5935 5933 5932 5929 5927 5925 5923 5920 5919 5917 5915 5912 5910 5908 5906 5904 5902 5900
5890 5895 5900 5904 5908 5912 5916 5919 5921 5924 5926 5928 5929 5933 5934 5935 5935 5935 5936 5937 5937 5937 5936 5935 5934 5934 5933 5932 5930 5928 5926 5924 5922 5919 5917 5915 5913 5911 5908 5906 5904 5901 5899 5897
5884 5889 5894 5899 5904 5908 5911 5914 5917 5920 5922 5924 5925 5930 5931 5931 5932 5932 5933 5934 5934 5934 5934 5933 5933 5932 5931 5929 5928 5926 5924 5922 5920 5918 5916 5914 5911 5909 5907 5904 5902 5899 5897 5895
5877 5882 5888 5893 5899 5902 5905 5909 5912 5915 5918 5919 5921 5926 5927 5928 5928 5929 5930 5931 5931 5931 5931 5931 5930 5929 5928 5926 5925 5924 5922 5920 5918 5916 5914 5912 5910 5907 5905 5902 5900 5897 5894 5892
5872 5876 5882 5887 5892 5896 5900 5904 5907 5909 5912 5914 5917 5920 5923 5924 5925 5926 5927 5927 5928 5928 5928 5928 5927 5926 5925 5923 5922 5921 5919 5918 5916 5914 5912 5910 5907 5905 5903 5900 5898 5895 5892 5890
5865 5870 5876 5882 5887 5890 5894 5898 5901 5904 5907 5910 5913 5915 5918 5920 5921 5922 5923 5923 5923 5924 5924 5924 5923 5922 5921 5920 5919 5918 5917 5915 5913 5911 5909 5907 5905 5902 5900 5897 5895 5892 5890 5888
5858 5864 5870 5876 5880 5884 5888 5892 5896 5899 5902 5905 5907 5910 5913 5915 5916 5917 5918 5918 5918 5918 5919 5919 5919 5918 5917 5916 5915 5914 5913 5911 5909 5908 5906 5904 5902 5899 5897 5895 5892 5890 5888 5886
5852 5858 5864 5869 5874 5878 5882 5887 5891 5894 5896 5899 5902 5906 5907 5909 5911 5912 5913 5914 5914 5913 5913 5914 5914 5914 5913 5912 5911 5910 5909 5908 5906 5904 5903 5901 5899 5896 5894 5892 5889 5887 5885 5883
5846 5852 5857 5862 5868 5871 5879 5882 5885 5888 5891 5894 5896 5899 5902 5904 5906 5907 5908 5909 5909 5909 5909 5909 5909 5909 5908 5908 5907 5906 5905 5904 5902 5901 5899 5897 5895 5893 5891 5889 5887 5884 5882 5880
5840 5846 5851 5856 5859 5864 5872 5876 5879 5882 5885 5888 5891 5893 5896 5898 5900 5902 5903 5903 5903 5904 5904 5904 5904 5904 5904 5903 5902 5902 5901 5900 5898 5897 5895 5894 5892 5890 5888 5886 5883 5881 5879 5877
5834 5839 5845 5849 5853 5858 5867 5871 5873 5876 5878 5882 5884 5887 5890 5892 5894 5897 5897 5897 5897 5897 5897 5898 5898 5898 5898 5898 5897 5897 5896 5895 5894 5893 5891 5890 5888 5886 5884 5882 5880 5878 5875 5873
5826 5832 5837 5842 5845 5851 5860 5863 5866 5869 5873 5876 5878 5881 5884 5886 5889 5890 5891 5891 5891 5892 5891 5892 5892 5892 5892 5892 5892 5891 5891 5890 5889 5888 5887 5885 5883 5881 5879 5878 5876 5874 5872 5869
5820 5825 5830 5834 5839 5847 5852 5855 5859 5862 5866 5869 5872 5874 5877 5879 5881 5882 5884 5885 5885 5885 5885 5886 5886 5886 5886 5886 5886 5886 5885 5885 5884 5883 5882 5880 5879 5877 5875 5873 5871 5869 5867 5865
5813 5819 5824 5829 5836 5840 5844 5848 5851 5854 5858 5862 5864 5867 5869 5871 5873 5875 5876 5877 5877 5878 5879 5879 5880 5880 5880 5879 5880 5880 5880 5879 5878 5877 5876 5875 5874 5872 5870 5869 5867 5865 5863 5860
5807 5812 5817 5822 5827 5832 5836 5840 5843 5847 5850 5854 5856 5859 5862 5864 5865 5867 5868 5868 5869 5870 5871 5872 5873 5873 5874 5874 5874 5874 5874 5873 5873 5872 5871 5870 5869 5867 5865 5864 5862 5860 5858 5856
5801 5806 5810 5814 5819 5824 5828 5832 5836 5839 5843 5846 5849 5851 5853 5855 5857 5859 5861 5861 5862 5863 5864 5865 5866 5867 5867 5867 5868 5868 5868 5868 5867 5866 5865 5864 5863 5862 5860 5859 5857 5855 5853 5851
5795 5799 5804 5808 5813 5817 5821 5825 5829 5832 5835 5838 5841 5844 5845 5847 5848 5851 5852 5854 5855 5856 5857 5858 5859 5860 5861 5861 5861 5862 5862 5862 5861 5861 5860 5859 5858 5857 5855 5853 5852 5849 5847 5845